CW8046 Weather Reports


Display with metric or nautical units.
time (UTC)temp
F
wind
direction
speed
MPH
gust
MPH
rain 1hr
in
rain 24hr
in
rain mn
in
humidity
%
barometer
mb
20260504000859 67 312 0.0 2.0 0.00 0.01 0.01 51 1016.6
20260504000354 67 312 1.0 2.0 0.00 0.01 0.01 50 1016.6
20260503235847 68 312 1.0 2.0 0.00 0.01 0.01 50 1016.5
20260503235342 69 312 0.0 2.0 0.00 0.01 0.01 48 1016.5
20260503234835 69 312 0.0 2.0 0.00 0.01 0.01 47 1016.5
20260503234329 69 312 0.0 2.0 0.00 0.01 0.01 43 1016.5
20260503233823 70 329 0.0 1.0 0.00 0.01 0.01 38 1016.5
20260503233317 70 329 1.0 3.0 0.00 0.01 0.01 35 1016.5
20260503232811 70 329 1.0 4.0 0.00 0.01 0.01 33 1016.5
20260503232512 71 305 1.0 3.0 0.00 0.01 0.01 32 1016.5
20260503232355 70 296 1.0 4.0 0.00 0.01 0.01 32 1016.5
20260503231253 71 345 1.0 4.0 0.00 0.01 0.01 33 1016.5
20260503230748 72 246 1.0 4.0 0.00 0.01 0.01 31 1016.5
20260503230721 72 234 1.0 4.0 0.00 0.01 0.01 30 1016.6
20260503225735 72 307 1.0 2.0 0.00 0.01 0.01 33 1016.6
20260503225229 72 331 1.0 6.0 0.00 0.01 0.01 31 1016.7
20260503224723 72 313 2.0 6.0 0.00 0.01 0.01 30 1016.7
20260503224217 73 49 2.0 7.0 0.00 0.01 0.01 29 1016.7
20260503223711 73 273 2.0 7.0 0.00 0.01 0.01 29 1016.8
20260503223205 73 335 2.0 8.0 0.00 0.01 0.01 30 1016.8
20260503222659 72 240 2.0 8.0 0.00 0.01 0.01 31 1016.9
20260503222153 72 271 2.0 6.0 0.00 0.01 0.01 29 1016.8
20260503221647 72 213 3.0 7.0 0.00 0.01 0.01 29 1016.8
20260503221142 72 217 3.0 7.0 0.00 0.01 0.01 29 1016.8
20260503220635 72 229 3.0 7.0 0.00 0.01 0.01 30 1016.8
20260503220129 72 215 2.0 7.0 0.00 0.01 0.01 30 1016.8
20260503215623 72 288 3.0 7.0 0.00 0.01 0.01 29 1016.7
20260503215117 72 44 2.0 6.0 0.00 0.01 0.01 32 1016.8
20260503214612 73 38 3.0 8.0 0.00 0.01 0.01 30 1016.8
20260503214113 73 281 3.0 9.0 0.00 0.01 0.01 29 1016.9
20260503213835 72 221 4.0 10.0 0.00 0.01 0.01 30 1016.8
20260503213110 72 225 3.0 10.0 0.00 0.01 0.01 30 1016.8
20260503212613 72 213 3.0 8.0 0.00 0.01 0.01 30 1016.9
20260503212111 72 51 4.0 11.0 0.00 0.01 0.01 32 1016.9
20260503211606 72 28 6.0 12.0 0.00 0.01 0.01 31 1016.9
20260503211108 72 232 5.0 12.0 0.00 0.01 0.01 29 1016.9
20260503210608 73 252 4.0 11.0 0.00 0.01 0.01 30 1016.8
20260503210108 73 304 3.0 9.0 0.00 0.01 0.01 29 1016.9
20260503205608 73 250 3.0 12.0 0.00 0.01 0.01 30 1016.9
20260503205105 73 319 4.0 12.0 0.00 0.01 0.01 31 1016.9
20260503204607 73 230 4.0 9.0 0.00 0.01 0.01 29 1017.0
20260503204104 73 320 3.0 9.0 0.00 0.01 0.01 30 1017.0
20260503204048 73 321 3.0 8.0 0.00 0.01 0.01 32 1017.0
20260503203106 72 243 3.0 8.0 0.00 0.01 0.01 30 1017.1
20260503202605 72 346 3.0 7.0 0.00 0.01 0.01 30 1017.2
20260503202105 72 319 4.0 12.0 0.00 0.01 0.01 30 1017.2
20260503201559 72 244 4.0 12.0 0.00 0.01 0.01 30 1017.3
20260503201053 72 267 4.0 10.0 0.00 0.01 0.01 32 1017.4
20260503200554 72 308 3.0 10.0 0.00 0.01 0.01 29 1017.4
20260503200052 71 255 3.0 10.0 0.00 0.01 0.01 30 1017.6
20260503195550 71 249 5.0 12.0 0.00 0.01 0.01 30 1017.7
20260503195309 71 255 4.0 12.0 0.00 0.01 0.01 29 1017.8
20260503194548 71 142 2.0 9.0 0.00 0.01 0.01 30 1017.8
20260503194046 71 197 3.0 9.0 0.00 0.01 0.01 30 1017.9
20260503193546 71 245 5.0 10.0 0.00 0.01 0.01 29 1018.0
20260503193046 71 281 6.0 11.0 0.00 0.01 0.01 30 1018.0
20260503192545 72 207 4.0 11.0 0.00 0.01 0.01 29 1018.2
20260503192305 72 224 2.0 9.0 0.00 0.01 0.01 31 1018.3
20260503191808 71 97 2.0 9.0 0.00 0.01 0.01 32 1018.4
20260503191044 71 316 4.0 12.0 0.00 0.01 0.01 30 1018.5
20260503190542 71 143 5.0 12.0 0.00 0.01 0.01 30 1018.6
20260503190044 71 211 4.0 10.0 0.00 0.01 0.01 29 1018.7
20260503185542 71 216 4.0 11.0 0.00 0.01 0.01 30 1018.8
20260503185043 71 227 5.0 11.0 0.00 0.01 0.01 31 1018.8
20260503184540 71 250 5.0 12.0 0.00 0.01 0.01 30 1018.9
20260503184302 71 327 4.0 12.0 0.00 0.01 0.01 32 1019.0
20260503183539 71 253 4.0 8.0 0.00 0.01 0.01 30 1019.0
20260503183038 71 197 3.0 9.0 0.00 0.01 0.01 32 1019.1
20260503182538 70 258 5.0 14.0 0.00 0.01 0.01 34 1019.2
20260503182037 70 240 5.0 14.0 0.00 0.01 0.01 33 1019.3
20260503181538 70 130 4.0 10.0 0.00 0.01 0.01 32 1019.2
20260503181038 70 211 4.0 10.0 0.00 0.01 0.01 34 1019.4
20260503180531 69 251 4.0 10.0 0.00 0.01 0.01 34 1019.4
20260503180026 69 248 4.0 10.0 0.00 0.01 0.01 35 1019.5
20260503175519 69 263 5.0 10.0 0.00 0.01 0.01 34 1019.5
20260503175235 69 217 4.0 10.0 0.00 0.01 0.01 35 1019.6
20260503174507 68 275 5.0 10.0 0.00 0.01 0.01 32 1019.6
20260503174003 68 192 4.0 11.0 0.00 0.01 0.01 32 1019.5
20260503173731 69 252 3.0 11.0 0.00 0.01 0.01 34 1019.5
20260503173003 69 331 3.0 7.0 0.00 0.01 0.01 35 1019.6
20260503172718 68 268 4.0 10.0 0.00 0.01 0.01 36 1019.7
20260503172224 68 271 4.0 10.0 0.00 0.01 0.01 36 1019.7
20260503171502 68 271 3.0 9.0 0.00 0.01 0.01 37 1019.6
20260503170958 69 99 2.0 7.0 0.00 0.01 0.01 33 1019.7
20260503170500 68 193 3.0 11.0 0.00 0.01 0.01 32 1019.8
20260503150936 64 42 2.0 6.0 0.00 0.01 0.01 45 1020.7
20260503150435 64 98 2.0 8.0 0.00 0.01 0.01 48 1020.7
20260503130924 53 43 1.0 5.0 0.01 0.12 0.01 85 1020.1
20260503130425 52 20 0.0 3.0 0.01 0.12 0.01 86 1020.1
20260503110411 48 228 1.0 3.0 0.00 0.24 0.00 85 1019.1
20260503090354 45 78 0.0 0.0 0.00 0.31 0.00 84 1017.8
20260503090119 45 78 0.0 0.0 0.00 0.31 0.00 84 1017.8
20260503081325 46 78 0.0 0.0 0.00 0.41 0.00 84 1017.4
20260503080821 46 78 0.0 0.0 0.00 0.43 0.00 84 1017.2
20260503080547 46 78 0.0 0.0 0.00 0.43 0.00 83 1017.3
20260503072812 46 78 0.0 0.0 0.00 0.49 0.00 83 1017.0
20260503072312 46 78 0.0 0.0 0.00 0.50 0.00 83 1017.1
20260503072038 46 78 0.0 0.0 0.00 0.51 0.00 83 1017.0
20260503071311 47 78 0.0 0.0 0.00 0.51 0.00 83 1016.9
20260503070812 47 78 0.0 0.0 0.00 0.51 0.00 83 1016.8
20260503070307 47 78 0.0 0.0 0.00 0.51 0.00 82 1016.9
20260503054649 49 78 0.0 0.0 0.00 0.55 0.00 82 1016.6
20260503054147 49 78 0.0 0.0 0.00 0.55 0.00 82 1016.7
20260503053646 49 78 0.0 0.0 0.00 0.55 0.00 82 1016.6
20260503053144 49 78 0.0 0.0 0.00 0.55 0.00 82 1016.7
20260503052907 50 78 0.0 0.0 0.00 0.55 0.00 81 1016.6
20260503052627 50 78 0.0 0.0 0.00 0.55 0.00 81 1016.6
20260503051634 50 78 0.0 0.0 0.00 0.55 0.00 82 1016.6
20260503051128 50 78 0.0 0.0 0.00 0.55 0.00 81 1016.6
20260503050623 51 78 0.0 0.0 0.00 0.55 0.00 81 1016.6
20260503050341 51 78 0.0 0.0 0.00 0.55 0.00 81 1016.6
20260503045611 51 78 0.0 0.0 0.00 0.55 0.00 81 1016.6
20260503045105 51 78 0.0 0.0 0.00 0.55 0.00 81 1016.6
20260503044558 51 78 0.0 0.0 0.00 0.55 0.00 81 1016.6
20260503044053 52 78 0.0 0.0 0.00 0.55 0.00 81 1016.5
20260503043817 52 78 0.0 0.0 0.00 0.55 0.00 81 1016.4
20260503043522 52 78 0.0 0.0 0.00 0.55 0.00 81 1016.3
20260503042534 53 78 0.0 0.0 0.00 0.55 0.00 81 1016.3
20260503042029 53 78 0.0 0.0 0.00 0.55 0.00 81 1016.3
20260503041523 53 78 0.0 0.0 0.00 0.55 0.00 81 1016.3
20260503041017 53 78 0.0 0.0 0.00 0.55 0.00 81 1016.3
20260503040732 53 78 0.0 0.0 0.00 0.55 0.00 81 1016.3
20260503040005 53 78 0.0 0.0 0.00 0.55 0.00 81 1016.3
20260503035458 54 78 0.0 0.0 0.00 0.55 0.55 81 1016.2
20260503034951 54 78 0.0 0.0 0.00 0.55 0.55 81 1016.1
20260503034447 54 78 0.0 0.0 0.00 0.55 0.55 81 1016.1
20260503033939 54 78 0.0 0.0 0.00 0.55 0.55 81 1016.0
20260503033433 54 78 0.0 0.0 0.00 0.55 0.55 81 1016.1
20260503032927 54 78 0.0 0.0 0.00 0.55 0.55 81 1016.1
20260503032421 54 78 0.0 1.0 0.00 0.55 0.55 81 1016.2
20260503031915 54 78 0.0 1.0 0.00 0.55 0.55 81 1016.4
20260503031630 54 78 0.0 1.0 0.00 0.55 0.55 81 1016.3
20260503030905 54 31 0.0 1.0 0.00 0.55 0.55 81 1016.3
20260503030358 54 31 0.0 1.0 0.00 0.55 0.55 81 1016.4
20260503025852 54 31 0.0 2.0 0.00 0.55 0.55 81 1016.4
20260503025826 54 31 0.0 3.0 0.00 0.55 0.55 82 1016.4
20260503024840 54 29 1.0 3.0 0.00 0.55 0.55 82 1016.2
20260503024558 54 355 2.0 8.0 0.00 0.55 0.55 82 1016.3
20260503024051 54 46 1.0 8.0 0.00 0.55 0.55 82 1016.1
20260503023543 55 32 1.0 3.0 0.00 0.55 0.55 83 1016.2
20260503022816 55 355 1.0 3.0 0.00 0.55 0.55 83 1016.0
20260503022309 55 52 0.0 3.0 0.00 0.55 0.55 83 1015.6
20260503021804 55 253 1.0 3.0 0.00 0.55 0.55 83 1015.3
20260503021303 54 240 0.0 3.0 0.00 0.55 0.55 82 1015.3
20260503020801 54 236 0.0 3.0 0.00 0.55 0.55 82 1015.3
20260503020259 54 236 1.0 3.0 0.00 0.55 0.55 82 1015.1
20260503015757 54 48 1.0 3.0 0.00 0.55 0.55 82 1014.8
20260503015257 55 94 0.0 1.0 0.00 0.55 0.55 82 1014.8
20260503014759 55 66 0.0 2.0 0.00 0.55 0.55 81 1014.8
20260503014520 55 65 0.0 2.0 0.00 0.55 0.55 81 1014.6
20260503014013 55 227 1.0 3.0 0.00 0.55 0.55 81 1014.7
20260503013252 55 188 1.0 3.0 0.00 0.55 0.55 81 1014.6
20260503012749 55 257 0.0 3.0 0.00 0.55 0.55 81 1014.6
20260503012247 55 46 0.0 1.0 0.00 0.55 0.55 80 1014.3
20260503012010 55 46 0.0 0.0 0.00 0.55 0.55 80 1014.2
20260503011507 55 46 0.0 0.0 0.00 0.55 0.55 80 1014.3
20260503010748 55 46 0.0 0.0 0.00 0.55 0.55 79 1014.1
20260503010246 55 46 0.0 1.0 0.00 0.55 0.55 79 1014.0
20260503005746 55 46 0.0 1.0 0.00 0.55 0.55 79 1013.9
20260503005246 55 46 0.0 0.0 0.00 0.55 0.55 79 1013.6
20260503004745 55 46 0.0 0.0 0.00 0.55 0.55 79 1013.6
20260503004238 56 46 0.0 0.0 0.00 0.55 0.55 79 1013.6
20260503003738 56 46 0.0 0.0 0.00 0.55 0.55 78 1013.5
20260503003502 56 46 0.0 2.0 0.00 0.55 0.55 78 1013.5
20260503002734 56 46 0.0 2.0 0.00 0.55 0.55 78 1013.3
20260503002715 57 120 0.0 1.0 0.00 0.55 0.55 78 1013.3
20260503001735 57 113 0.0 1.0 0.00 0.55 0.55 78 1013.4
20260503001455 57 65 0.0 1.0 0.00 0.55 0.55 77 1013.4